�N����,����,�~����,�C��,���x,�C��,����,���ϕ���,�ő�u�ԕ���,�ő厞����,���˗�,�I�_���x,�n�����x,�ő啗���N��,DTYPE
"21/03/24","00:10",0.0,4.6,87.5,1018.2,326.8,1.2,2.8,328.1,0.00,2.7,130.0,"00:09:40",1
"21/03/24","00:20",0.0,4.0,88.0,1018.0,321.9,2.2,2.8,331.5,0.00,2.2,130.0,"00:10:08",1
"21/03/24","00:30",0.0,4.0,88.4,1018.0,294.4,1.6,2.6,315.6,0.00,2.3,130.0,"00:29:12",1
"21/03/24","00:40",0.0,4.1,88.8,1018.2,316.7,1.8,2.8,322.0,0.00,2.5,130.0,"00:30:48",1
"21/03/24","00:50",0.0,3.8,89.1,1018.5,286.9,1.5,2.5,305.9,0.00,2.2,130.0,"00:40:02",1
"21/03/24","01:00",0.0,4.2,89.6,1018.2,298.6,2.2,2.9,306.9,0.00,2.7,130.0,"00:52:40",1
"21/03/24","01:10",0.0,4.3,89.8,1018.5,281.7,2.0,2.4,312.3,0.00,2.8,130.0,"01:01:04",1
"21/03/24","01:20",0.0,4.3,90.1,1018.2,288.6,2.0,2.6,307.3,0.00,2.9,130.0,"01:12:16",1
"21/03/24","01:30",0.0,4.1,90.2,1018.5,308.5,1.8,2.6,292.0,0.00,2.7,130.0,"01:21:04",1
"21/03/24","01:40",0.0,4.3,90.5,1018.5,301.8,2.2,2.9,301.7,0.00,2.9,130.0,"01:34:48",1
"21/03/24","01:50",0.0,3.9,90.5,1018.7,322.4,2.3,2.9,321.1,0.00,2.5,130.0,"01:48:08",1
"21/03/24","02:00",0.0,3.6,90.9,1018.2,304.0,2.0,2.5,323.7,0.00,2.3,130.0,"01:50:08",1
"21/03/24","02:10",0.0,3.8,91.2,1018.2,290.6,1.8,2.7,293.8,0.00,2.5,130.0,"02:06:40",1
"21/03/24","02:20",0.0,3.9,91.1,1018.5,311.3,1.7,2.2,317.4,0.00,2.6,130.0,"02:17:28",1
"21/03/24","02:30",0.0,3.7,91.4,1018.2,323.3,1.8,2.1,317.1,0.00,2.5,130.0,"02:29:12",1
"21/03/24","02:40",0.0,3.5,91.6,1018.0,312.1,1.8,2.4,320.9,0.00,2.3,130.0,"02:33:12",1
"21/03/24","02:50",0.0,3.3,91.8,1017.8,303.8,1.6,2.8,307.3,0.00,2.1,130.0,"02:47:52",1
"21/03/24","03:00",0.0,3.2,92.0,1017.5,311.2,2.0,2.5,316.6,0.00,2.1,130.0,"02:52:56",1
"21/03/24","03:10",0.0,3.2,92.2,1017.8,301.3,1.6,2.4,308.4,0.00,2.1,130.0,"03:01:20",1
"21/03/24","03:20",0.0,3.1,92.3,1018.2,315.5,2.1,2.8,324.5,0.00,2.0,130.0,"03:15:52",1
"21/03/24","03:30",0.0,2.9,92.5,1017.8,288.2,1.5,1.6,282.7,0.00,1.8,130.0,"03:25:52",1
"21/03/24","03:40",0.0,3.0,92.8,1018.2,310.5,2.0,3.2,320.5,0.00,2.0,130.0,"03:34:40",1
"21/03/24","03:50",0.0,2.9,92.8,1018.2,301.1,1.8,2.8,315.9,0.00,1.9,130.0,"03:48:24",1
"21/03/24","04:00",0.0,2.8,93.0,1018.2,319.0,2.6,3.3,318.5,0.00,1.8,130.0,"03:55:12",1
"21/03/24","04:10",0.0,2.7,93.2,1018.2,311.1,2.3,2.6,315.1,0.00,1.8,130.0,"04:04:16",1
"21/03/24","04:20",0.0,2.9,93.3,1018.2,311.6,1.8,2.7,315.1,0.00,2.0,130.0,"04:17:20",1
"21/03/24","04:30",0.0,2.5,93.4,1018.2,299.7,1.5,2.0,304.4,0.00,1.6,130.0,"04:24:40",1
"21/03/24","04:40",0.0,2.4,93.7,1018.7,307.1,2.1,3.2,325.2,0.00,1.5,130.0,"04:37:36",1
"21/03/24","04:50",0.0,2.5,93.9,1019.0,314.1,2.2,2.7,324.9,0.00,1.7,130.0,"04:47:28",1
"21/03/24","05:00",0.0,2.4,93.9,1018.7,296.7,1.5,2.6,317.3,0.00,1.6,130.0,"04:51:20",1
"21/03/24","05:10",0.0,2.2,94.2,1018.7,295.4,1.6,2.4,311.2,0.00,1.4,130.0,"05:00:02",1
"21/03/24","05:20",0.0,2.3,94.3,1018.5,299.6,1.6,2.4,313.1,0.00,1.5,130.0,"05:10:08",1
"21/03/24","05:30",0.0,2.4,94.4,1019.0,309.5,2.1,2.5,314.0,0.00,1.6,130.0,"05:27:12",1
"21/03/24","05:40",0.0,2.5,94.6,1019.0,312.3,2.2,2.7,308.3,0.00,1.8,130.0,"05:36:48",1
"21/03/24","05:50",0.0,2.3,94.6,1019.0,285.7,1.1,2.0,320.0,0.00,1.6,130.0,"05:47:44",1
"21/03/24","06:00",0.0,2.4,94.8,1019.0,316.8,2.1,3.2,325.1,0.00,1.7,130.0,"05:54:24",1
"21/03/24","06:10",0.0,2.3,94.9,1019.0,300.2,2.2,2.6,311.9,0.00,1.6,130.0,"06:04:16",1
"21/03/24","06:20",0.0,2.2,95.1,1019.2,284.1,1.1,1.9,311.4,0.00,1.5,130.0,"06:19:52",1
"21/03/24","06:30",0.0,2.4,95.2,1019.4,301.5,1.7,2.2,307.9,0.00,1.8,130.0,"06:24:48",1
"21/03/24","06:40",0.0,2.6,95.4,1019.2,317.2,2.2,3.3,322.7,0.00,2.0,130.0,"06:33:52",1
"21/03/24","06:50",0.0,3.1,95.5,1019.7,292.5,1.5,2.8,322.7,0.00,2.5,130.0,"06:41:36",1
"21/03/24","07:00",0.0,3.7,95.6,1019.7,295.4,1.2,1.8,317.2,0.01,3.1,130.0,"06:59:12",1
"21/03/24","07:10",0.0,4.6,95.5,1019.9,308.2,1.2,1.7,312.5,0.02,4.0,130.0,"07:00:40",1
"21/03/24","07:20",0.0,5.2,95.4,1019.9,282.8,0.7,2.0,318.7,0.03,4.6,130.0,"07:11:54",1
"21/03/24","07:30",0.0,6.2,95.4,1020.4,297.5,1.2,2.2,319.3,0.05,5.6,130.0,"07:26:16",1
"21/03/24","07:40",0.0,7.0,95.2,1020.6,301.0,0.5,1.2,307.5,0.07,6.3,130.0,"07:30:16",1
"21/03/24","07:50",0.0,7.5,94.7,1021.1,252.6,0.3,0.8,278.7,0.10,6.7,130.0,"07:40:54",1
"21/03/24","08:00",0.0,8.2,94.7,1021.1,210.9,0.2,0.9,137.6,0.13,7.4,130.0,"07:58:40",1
"21/03/24","08:10",0.0,8.8,93.9,1021.3,244.1,0.6,1.1,322.3,0.16,7.9,130.0,"08:06:00",1
"21/03/24","08:20",0.0,9.1,92.0,1021.5,255.3,0.7,1.1,290.5,0.19,7.9,130.0,"08:13:20",1
"21/03/24","08:30",0.0,10.0,92.1,1021.8,265.5,0.5,1.0,273.0,0.22,8.8,130.0,"08:24:16",1
"21/03/24","08:40",0.0,10.4,89.3,1022.0,333.8,0.6,1.1,336.2,0.24,8.8,130.0,"08:35:04",1
"21/03/24","08:50",0.0,10.8,86.4,1022.5,135.8,0.6,1.4,114.2,0.28,8.7,130.0,"08:40:40",1
"21/03/24","09:00",0.0,11.6,80.9,1022.7,226.3,0.7,1.7,226.5,0.30,8.5,130.0,"08:53:28",1
"21/03/24","09:10",0.0,12.6,73.3,1022.5,238.3,0.5,1.6,148.4,0.35,8.0,130.0,"09:05:04",1
"21/03/24","09:20",0.0,13.2,67.0,1022.3,240.0,0.3,1.0,49.4,0.36,7.3,130.0,"09:15:44",1
"21/03/24","09:30",0.0,13.9,64.2,1022.3,267.0,0.8,1.6,235.8,0.38,7.3,130.0,"09:25:44",1
"21/03/24","09:40",0.0,14.2,61.9,1022.0,228.7,0.8,2.2,227.4,0.42,7.0,130.0,"09:33:44",1
"21/03/24","09:50",0.0,14.6,59.6,1022.0,7.5,0.7,2.1,334.5,0.41,6.9,130.0,"09:40:02",1
"21/03/24","10:00",0.0,15.3,57.3,1022.0,282.3,1.0,2.1,329.6,0.44,7.0,130.0,"09:52:00",1
"21/03/24","10:10",0.0,15.5,58.1,1021.5,236.5,0.8,2.2,263.8,0.42,7.3,130.0,"10:07:04",1
"21/03/24","10:20",0.0,15.4,55.5,1021.5,176.3,1.1,2.7,166.7,0.46,6.6,130.0,"10:19:12",1
"21/03/24","10:30",0.0,16.1,57.5,1021.1,215.4,1.0,2.0,199.3,0.51,7.8,130.0,"10:23:12",1
"21/03/24","10:40",0.0,16.0,57.3,1020.8,146.8,1.3,2.7,113.3,0.51,7.6,130.0,"10:31:28",1
"21/03/24","10:50",0.0,16.6,57.8,1020.6,169.3,1.3,3.4,124.2,0.54,8.3,130.0,"10:43:04",1
"21/03/24","11:00",0.0,16.8,55.1,1020.8,187.8,1.6,3.3,201.0,0.50,7.8,130.0,"10:53:04",1
"21/03/24","11:10",0.0,16.6,55.6,1020.6,107.6,1.5,3.9,127.6,0.53,7.7,130.0,"11:07:28",1
"21/03/24","11:20",0.0,17.3,54.7,1020.1,152.8,1.3,3.1,139.0,0.50,8.1,130.0,"11:15:52",1
"21/03/24","11:30",0.0,17.8,55.4,1019.9,177.7,1.1,3.2,113.7,0.53,8.8,130.0,"11:22:00",1
"21/03/24","11:40",0.0,17.7,53.9,1019.9,130.4,1.3,4.8,118.6,0.48,8.3,130.0,"11:34:56",1
"21/03/24","11:50",0.0,18.1,55.4,1019.9,289.8,1.3,3.3,154.9,0.47,9.1,130.0,"11:42:32",1
"21/03/24","12:00",0.0,18.4,55.3,1019.4,338.1,1.5,3.9,337.0,0.51,9.3,130.0,"11:58:08",1
"21/03/24","12:10",0.0,18.9,55.3,1019.0,324.6,1.5,4.1,354.3,0.60,9.8,130.0,"12:09:20",1
"21/03/24","12:20",0.0,18.0,54.1,1019.2,332.8,2.3,5.4,335.7,0.25,8.6,130.0,"12:17:52",1
"21/03/24","12:30",0.0,17.6,55.6,1019.0,333.7,2.5,5.1,346.1,0.22,8.7,130.0,"12:22:40",1
"21/03/24","12:40",0.0,18.9,54.1,1018.7,276.6,2.2,4.2,235.4,0.56,9.5,130.0,"12:39:28",1
"21/03/24","12:50",0.0,19.2,53.1,1018.7,203.5,1.7,5.4,210.6,0.37,9.5,130.0,"12:46:08",1
"21/03/24","13:00",0.0,20.0,49.9,1018.5,244.3,2.1,6.3,212.1,0.67,9.3,130.0,"12:58:16",1
"21/03/24","13:10",0.0,19.3,49.0,1018.5,203.4,3.4,6.6,208.1,0.55,8.4,130.0,"13:04:56",1
"21/03/24","13:20",0.0,18.9,51.5,1018.0,239.3,2.6,6.7,205.7,0.32,8.7,130.0,"13:11:20",1
"21/03/24","13:30",0.0,19.6,48.6,1017.8,220.4,1.6,3.6,215.7,0.40,8.5,130.0,"13:27:12",1
"21/03/24","13:40",0.0,20.2,48.7,1017.8,252.1,2.2,5.9,188.9,0.56,9.1,130.0,"13:37:04",1
"21/03/24","13:50",0.0,19.7,47.9,1017.1,215.8,2.2,4.9,217.2,0.48,8.4,130.0,"13:44:16",1
"21/03/24","14:00",0.0,20.1,42.9,1017.1,233.6,2.3,7.1,227.1,0.56,7.1,130.0,"13:56:56",1
"21/03/24","14:10",0.0,20.0,43.1,1017.1,226.9,3.1,7.3,221.7,0.53,7.1,130.0,"14:05:28",1
"21/03/24","14:20",0.0,20.3,43.9,1017.1,235.8,2.3,4.9,229.9,0.51,7.7,130.0,"14:10:08",1
"21/03/24","14:30",0.0,20.4,44.4,1016.8,249.3,2.6,5.2,232.6,0.50,7.9,130.0,"14:27:12",1
"21/03/24","14:40",0.0,20.1,45.4,1017.1,268.6,2.8,7.2,320.3,0.43,8.0,130.0,"14:38:48",1
"21/03/24","14:50",0.0,20.5,46.3,1016.8,269.4,2.7,4.8,270.4,0.46,8.6,130.0,"14:40:24",1
"21/03/24","15:00",0.0,20.6,46.8,1016.8,242.8,1.8,3.7,259.2,0.42,8.9,130.0,"14:58:40",1
"21/03/24","15:10",0.0,20.2,46.7,1016.6,280.3,2.8,4.9,315.2,0.40,8.5,130.0,"15:00:02",1
"21/03/24","15:20",0.0,20.3,47.7,1016.6,267.2,2.3,4.4,321.2,0.37,8.9,130.0,"15:12:08",1
"21/03/24","15:30",0.0,19.9,48.8,1016.4,246.9,2.7,5.4,275.1,0.34,8.9,130.0,"15:25:52",1
"21/03/24","15:40",0.0,19.8,51.0,1016.4,237.9,2.2,4.1,227.4,0.32,9.4,130.0,"15:32:24",1
"21/03/24","15:50",0.0,19.8,51.8,1016.4,229.3,2.5,5.6,228.3,0.29,9.7,130.0,"15:43:44",1
"21/03/24","16:00",0.0,19.7,50.5,1016.6,239.2,2.6,4.9,224.9,0.27,9.2,130.0,"15:53:44",1
"21/03/24","16:10",0.0,19.4,51.5,1016.8,251.2,3.0,5.7,270.9,0.20,9.2,130.0,"16:05:04",1
"21/03/24","16:20",0.0,19.1,52.1,1016.4,250.3,2.5,5.1,219.4,0.18,9.1,130.0,"16:13:28",1
"21/03/24","16:30",0.0,18.6,53.8,1016.6,239.8,2.0,4.7,217.1,0.09,9.1,130.0,"16:29:28",1
"21/03/24","16:40",0.0,18.5,54.6,1016.4,223.6,2.7,5.2,231.8,0.11,9.2,130.0,"16:33:52",1
"21/03/24","16:50",0.0,18.6,53.4,1016.8,255.3,2.6,4.2,308.6,0.16,9.0,130.0,"16:43:12",1
"21/03/24","17:00",0.0,18.5,54.5,1016.6,242.8,2.1,4.3,230.0,0.12,9.2,130.0,"16:57:44",1
"21/03/24","17:10",0.0,18.4,54.6,1016.8,252.5,1.8,4.0,276.9,0.08,9.1,130.0,"17:08:40",1
"21/03/24","17:20",0.0,18.1,54.5,1016.8,273.4,2.7,4.8,298.4,0.05,8.8,130.0,"17:16:48",1
"21/03/24","17:30",0.0,18.0,55.0,1017.3,263.4,2.0,4.9,300.1,0.04,8.9,130.0,"17:20:32",1
"21/03/24","17:40",0.0,17.7,55.4,1017.1,248.2,2.1,4.3,317.3,0.03,8.7,130.0,"17:33:04",1
"21/03/24","17:50",0.0,17.4,56.0,1017.1,263.9,1.6,3.9,259.7,0.01,8.6,130.0,"17:45:52",1
"21/03/24","18:00",0.0,17.1,56.3,1016.8,281.1,2.0,3.4,309.2,0.01,8.4,130.0,"17:57:20",1
"21/03/24","18:10",0.0,16.7,56.0,1017.1,278.8,2.1,3.9,319.6,0.00,7.9,130.0,"18:00:40",1
"21/03/24","18:20",0.0,16.5,56.4,1017.1,301.6,1.3,2.6,252.7,0.00,7.8,130.0,"18:12:08",1
"21/03/24","18:30",0.0,16.3,57.3,1017.1,325.8,1.2,3.4,332.4,0.00,7.9,130.0,"18:25:36",1
"21/03/24","18:40",0.0,15.7,59.4,1017.3,339.9,1.6,3.9,336.7,0.00,7.9,130.0,"18:38:24",1
"21/03/24","18:50",0.0,15.5,59.3,1016.8,353.3,1.2,2.7,336.2,0.00,7.6,130.0,"18:40:02",1
"21/03/24","19:00",0.0,15.4,57.9,1017.1,340.8,1.6,3.3,351.3,0.00,7.2,130.0,"18:51:44",1
"21/03/24","19:10",0.0,15.3,59.3,1017.3,335.6,1.7,2.5,322.5,0.00,7.5,130.0,"19:09:28",1
"21/03/24","19:20",0.0,15.1,60.4,1017.5,324.2,2.0,3.1,334.3,0.00,7.5,130.0,"19:16:40",1
"21/03/24","19:30",0.0,14.4,63.4,1017.3,330.2,2.1,3.2,336.1,0.00,7.6,130.0,"19:26:24",1
"21/03/24","19:40",0.0,14.1,65.7,1017.1,330.4,2.8,4.1,333.6,0.00,7.8,130.0,"19:34:42",1
"21/03/24","19:50",0.0,14.0,66.7,1017.5,325.4,3.1,4.0,319.3,0.00,7.9,130.0,"19:42:08",1
"21/03/24","20:00",0.0,14.1,66.9,1017.8,331.9,3.5,5.6,344.8,0.00,8.1,130.0,"19:58:46",1
"21/03/24","20:10",0.0,14.2,66.3,1017.5,330.4,3.6,4.3,330.4,0.00,8.1,130.0,"20:07:42",1
"21/03/24","20:20",0.0,14.0,67.0,1018.0,316.6,2.7,3.7,339.4,0.00,8.0,130.0,"20:17:30",1
"21/03/24","20:30",0.0,13.8,67.7,1017.8,318.0,2.3,3.6,320.2,0.00,8.0,130.0,"20:27:54",1
"21/03/24","20:40",0.0,13.7,68.6,1017.5,325.2,3.2,4.2,333.6,0.00,8.1,130.0,"20:37:32",1
"21/03/24","20:50",0.0,13.5,69.4,1017.5,315.2,2.2,2.9,309.2,0.00,8.1,130.0,"20:40:08",1
"21/03/24","21:00",0.0,13.2,69.8,1017.5,304.4,1.1,2.6,337.4,0.00,7.9,130.0,"20:52:00",1
"21/03/24","21:10",0.0,13.0,70.5,1017.8,312.1,1.3,2.1,321.6,0.00,7.8,130.0,"21:04:04",1
"21/03/24","21:20",0.0,12.9,71.0,1018.0,289.9,1.1,1.4,317.8,0.00,7.8,130.0,"21:10:26",1
"21/03/24","21:30",0.0,12.8,71.4,1018.2,306.8,1.7,1.9,308.7,0.00,7.8,130.0,"21:23:48",1
"21/03/24","21:40",0.0,12.7,71.7,1018.0,316.5,1.7,2.2,302.8,0.00,7.8,130.0,"21:30:54",1
"21/03/24","21:50",0.0,12.3,72.1,1017.5,280.6,1.0,1.4,323.6,0.00,7.5,130.0,"21:40:18",1
"21/03/24","22:00",0.0,12.2,72.7,1017.3,302.7,1.5,2.1,303.8,0.00,7.5,130.0,"21:57:50",1
"21/03/24","22:10",0.0,11.7,73.6,1017.5,305.4,0.7,1.6,308.6,0.00,7.2,130.0,"22:09:28",1
"21/03/24","22:20",0.0,11.5,74.7,1017.5,307.6,1.6,2.2,328.0,0.00,7.2,130.0,"22:15:08",1
"21/03/24","22:30",0.0,11.3,75.9,1017.3,301.3,1.6,1.9,303.9,0.00,7.2,130.0,"22:21:56",1
"21/03/24","22:40",0.0,11.2,77.2,1017.3,303.4,1.8,2.0,301.0,0.00,7.4,130.0,"22:33:56",1
"21/03/24","22:50",0.0,11.1,78.7,1017.3,320.1,2.0,2.6,308.1,0.00,7.6,130.0,"22:46:34",1
"21/03/24","23:00",0.0,11.0,79.6,1016.8,301.5,1.7,2.1,300.3,0.00,7.7,130.0,"22:54:42",1
"21/03/24","23:10",0.0,10.9,80.3,1016.8,307.2,1.7,2.8,314.6,0.00,7.7,130.0,"23:02:26",1
"21/03/24","23:20",0.0,10.7,80.8,1016.6,319.2,1.3,1.8,327.3,0.00,7.6,130.0,"23:11:12",1
"21/03/24","23:30",0.0,10.8,81.3,1016.1,299.4,1.7,2.0,329.7,0.00,7.8,130.0,"23:24:24",1
"21/03/24","23:40",0.0,10.8,81.6,1016.6,296.0,1.7,2.2,307.1,0.00,7.8,130.0,"23:34:02",1
"21/03/24","23:50",0.0,10.8,81.6,1016.8,320.2,1.8,2.6,314.7,0.00,7.8,130.0,"23:41:52",1
"21/03/24","24:00",0.0,10.8,81.6,1017.1,319.4,1.8,2.5,318.4,0.00,7.8,130.0,"23:58:04",1
